Tracking 28052 objects as of 23-Sep-2023
HD Live streaming from Space Station
objects crossing your sky now

STARLINK-4261

Track STARLINK-4261 now!
10-day predictions
STARLINK-4261 is classified as:


NORAD ID: 52868
Int'l Code: 2022-062AQ
Perigee: 546.0 km
Apogee: 547.7 km
Inclination: 53.2 °
Period: 95.4 minutes
Semi major axis: 6917 km
RCS: Unknown
Launch date: June 17, 2022
Source: United States (US)
Launch site: AIR FORCE EASTERN TEST RANGE (AFETR)
Your satellite tracking list
Your tracking list is empty




NASA's NSSDC Master Catalog

Two Line Element Set (TLE):
1 52868U 22062AQ  23265.25133777  .00001856  00000-0  13465-3 0  9996
2 52868  53.2155 101.8861 0001249  99.6987 260.4146 15.08841777 70144
Source of the keplerian elements: AFSPC